This is the latest recevied weather packets stored in our database for station/object K3JSE-4. If no packets are shown the sender has not sent any weather packets the latest 10 day(s).
| Time | Temp. | Humidity | Pressure | Rain* | Wind** | Luminosity | Snow |
|---|---|---|---|---|---|---|---|
| 1777761643 | 11.67° C | 41% | 1012.4 hPa | 0 mm | - | - | - |
| 1777761343 | 11.67° C | 43% | 1012.4 hPa | 0 mm | - | - | - |
| 1777761043 | 11.67° C | 42% | 1012.3 hPa | 0 mm | - | - | - |
| 1777760743 | 12.22° C | 41% | 1012.3 hPa | 0 mm | - | - | - |
| 1777760443 | 12.22° C | 41% | 1012.2 hPa | 0 mm | - | - | - |
| 1777760143 | 12.22° C | 40% | 1012.2 hPa | 0 mm | - | - | - |
| 1777759843 | 12.78° C | 41% | 1012.3 hPa | 0 mm | - | - | - |
| 1777759543 | 12.78° C | 39% | 1012.2 hPa | 0 mm | - | - | - |
| 1777759243 | 12.78° C | 39% | 1012.1 hPa | 0 mm | - | - | - |
| 1777758943 | 13.33° C | 42% | 1012.1 hPa | 0 mm | - | - | - |
| 1777758643 | 13.33° C | 37% | 1012.2 hPa | 0 mm | - | - | - |
| 1777758343 | 13.89° C | 38% | 1012.1 hPa | 0 mm | - | - | - |
| 1777758043 | 14.44° C | 38% | 1012 hPa | 0 mm | - | - | - |
| 1777757743 | 14.44° C | 37% | 1012 hPa | 0 mm | - | - | - |
| 1777757443 | 13.89° C | 36% | 1012 hPa | 0 mm | - | - | - |
| 1777757143 | 14.44° C | 39% | 1012 hPa | 0 mm | - | - | - |
| 1777756843 | 13.89° C | 36% | 1011.9 hPa | 0 mm | - | - | - |
| 1777756543 | 14.44° C | 40% | 1011.9 hPa | 0 mm | - | - | - |
| 1777756243 | 14.44° C | 38% | 1011.9 hPa | 0 mm | - | - | - |
| 1777755943 | 15° C | 37% | 1011.9 hPa | 0 mm | - | - | - |
| 1777755643 | 13.89° C | 43% | 1011.7 hPa | 0 mm | - | - | - |
| 1777755344 | 12.78° C | 38% | 1011.8 hPa | 0 mm | - | - | - |
| 1777755044 | 13.33° C | 38% | 1011.7 hPa | 0 mm | - | - | - |
| 1777754744 | 12.78° C | 41% | 1011.6 hPa | 0 mm | - | - | - |
| 1777754444 | 13.33° C | 39% | 1011.7 hPa | 0 mm | - | - | - |
* Rain latest hour (hover to see other rain measurements)
** Current wind speed in m/s (hover to see current wind gust speed)